Location: Godiavel Galaoual
(15.2485°N, 12.6604°W)
Time: 02:06:01
(UTC+00:00)

Transit 4A - Pass Details

Date: 17 June 2021
Orbit: 872 x 972 km, 66.8° (Epoch: 29 July)

Event Time Altitude Azimuth Distance (km) Brightness Sun altitude
Rises 09:03:35 0° 179° (S) 3,614 10.8 35.9°
Reaches altitude 10° 09:06:25 10° 169° (S) 2,656 10.3 36.6°
Maximum altitude 09:11:48 32° 108° (ESE) 1,542 10.3 37.8°
Drops below altitude 10° 09:17:04 10° 47° (NE) 2,597 11.3 39.0°
Sets 09:19:48 0° 38° (NE) 3,523 11.6 39.6°
